Location: Newark
(58.8333°N, 23.5833°E)
Time: 02:04:42
(UTC+00:00)

S-56A Canister/Altair - Pass Details

Date: 28 November 2019
Orbit: 633 x 2500 km, 38.9° (Epoch: 08 December)

Event Time Altitude Azimuth Distance (km) Brightness Sun altitude
Rises 14:35:22 0° 242° (WSW) 5,802 14.7 -6.4°
Reaches altitude 10° 14:40:26 10° 231° (SW) 4,526 13.2 -6.9°
Maximum altitude 14:48:54 23° 186° (S) 3,007 11.0 -7.9°
Drops below altitude 10° 14:55:27 10° 138° (SE) 3,398 10.7 -8.6°
Sets 14:58:36 0° 124° (SE) 4,091 11.0 -9.0°
